[[{"header":{"parameterUnit":"m.s-1","parameterCategory":1,"la1":30.2991,"la2":30.254,"lo1":-89.0895,"lo2":-89.0444,"dy":0.0017,"dx":0.0017,"nx":28,"ny":28,"refTime":"2023-10-31T03:00:00:Z","depth":0,"parameterNumber":2,"parameterNumberName":"U-component_of_WINDS"},"data":[0,0,0,0,0,0,0,0,0,0,0,0,0,0,0,0,0,0,0,0,0,0,0,0,0,0,0,0,0,0,0,0,0,0,0,0,0,0,0,0,0,0,0,0,0,0,0,0,0,0,0,0,0,0,0,0,0,0,0.0341,0.0341,0,0.0355,0.0355,0.0355,0.0388,0.0389,0.039,0.039,0.0402,0.0402,0.0402,0,0,0,0,0,0,0,0,0,0,0,0,0,0.0341,0.0341,0.0341,0.0341,0.0341,0.0355,0.0355,0.0355,0.0388,0.0389,0.039,0.0391,0.0402,0.0402,0.0402,0,0,0,0,0,0,0,0,0,0,0,0,0,0.0346,0.0341,0.0341,0.0359,0.0361,0.0355,0.0355,0.0355,0.0388,0.0389,0.039,0.0391,0.0403,0.0402,0.0402,0.0378,0,0,0.04,0.04,0,0,0,0,0,0,0,0,0.0346,0.0346,0.0356,0.0358,0.036,0.0371,0.036,0.0363,0.0388,0.0378,0.039,0.0392,0.0391,0.0391,0.0392,0.0378,0.0379,0.04,0.04,0.0399,0.0399,0,0,0,0,0,0,0,0.0346,0.0346,0.0346,0.0357,0.0359,0.0366,0.0368,0.036,0.0378,0.0379,0.0381,0.0382,0.0392,0.0392,0.0392,0.0379,0.04,0.04,0.0399,0.0399,0.0346,0.0345,0,0,0,0,0,0,0.0343,0.0346,0.0346,0.0347,0.0356,0.0366,0.0368,0.0366,0.0378,0.0381,0.0382,0.0384,0.0392,0.0393,0.0393,0.0365,0.0399,0.0399,0.0399,0.0348,0.0346,0.0345,0,0,0,0,0,0,0.0343,0.0343,0.0345,0.0347,0.0348,0.0365,0.0363,0.0366,0.0366,0.0381,0.0384,0.0378,0.0393,0.0393,0.0381,0.0366,0.0399,0.0398,0.0349,0.0347,0.0346,0.031,0,0,0,0,0,0,0.0343,0.0342,0.0334,0.0346,0.0348,0.0334,0.0362,0.0366,0.0366,0.0369,0.0378,0.0381,0.0394,0.0382,0.0381,0.0366,0.0398,0.035,0.0348,0.0346,0.0313,0.0307,0.0303,0,0,0,0,0,0.0343,0.0323,0.0333,0.0333,0.0337,0.0333,0.0334,0.035,0.0364,0.0355,0.0365,0.0381,0.0368,0.038,0.0379,0.0364,0.0351,0.0349,0.0346,0.0315,0.0308,0.0303,0,0,0,0,0,0,0.0307,0.0325,0.0336,0.032,0.0325,0.0339,0.0328,0.0343,0.0343,0.0346,0.0365,0.0367,0.0352,0.0357,0.037,0.0342,0.0362,0.036,0.0339,0.0333,0.0328,0.0326,0.0398,0,0,0,0,0,0.0297,0.0293,0.0309,0.0293,0.0295,0.0311,0.031,0.0322,0.0327,0.0329,0.0338,0.0342,0.0339,0.0336,0.0334,0.0314,0.0316,0.0303,0.0298,0.0294,0.0291,0.028,0.0275,0.0337,0.0337,0.0337,0,0,0.0277,0.0286,0.0282,0.0286,0.0291,0.0285,0.0312,0.0305,0.0301,0.0328,0.0317,0.0323,0.0329,0.0313,0.0306,0.0317,0.0275,0.0291,0.0288,0.0287,0.0277,0.0271,0.0266,0.0335,0.0335,0.0336,0,0,0.0237,0.0244,0.0231,0.0236,0.0244,0.0255,0.0252,0.0264,0.027,0.0259,0.0279,0.0275,0.0269,0.0272,0.0273,0.0236,0.025,0.0235,0.0209,0.0198,0.0193,0.0189,0.0175,0.0169,0.0232,0.0232,0.0232,0,0.021,0.0204,0.0223,0.0215,0.0216,0.0241,0.0228,0.0232,0.0238,0.0238,0.025,0.0244,0.025,0.0234,0.0225,0.0225,0.0222,0.0233,0.0192,0.0188,0.0185,0.0171,0.0166,0.023,0.023,0.023,0.023,0,0.017,0.0165,0.0154,0.0161,0.016,0.015,0.0167,0.0165,0.0177,0.0187,0.0176,0.0184,0.0184,0.0182,0.0193,0.0168,0.0174,0.0189,0.021,0.0176,0.0164,0.0159,0.0227,0.0228,0.0228,0.0229,0,0,0.0106,0.0125,0.012,0.0124,0.0135,0.0131,0.0122,0.0123,0.012,0.0124,0.0116,0.0111,0.0126,0.0127,0.0139,0.013,0.0099,0.0146,0.0147,0.0136,0.0071,0.0058,0.0052,0.0109,0.0108,0.0108,0.007,0,0.0068,0.0054,0.0071,0.0053,0.0048,0.0073,0.0065,0.007,0.0079,0.0076,0.0086,0.0082,0.0102,0.0103,0.0095,0.0104,0.0086,0.0108,0.0101,0.0101,0.0098,0.0046,0.0033,-0.0003,0.0065,0.0065,0.0064,0,0.0021,0.0024,0.0005,0.0018,0.0017,0.0009,0.0012,0.0009,0.0016,0.0023,0.0025,0.004,0.0031,0.0053,0.0041,0.0055,0.0054,0.0058,0.0057,0.0056,0.0079,0.0042,-0.0014,-0.002,0.0057,0.0057,0.0058,0,-0.0024,-0.0025,-0.0037,-0.0034,-0.002,-0.0026,-0.002,-0.0012,-0.0012,-0.001,-0.001,-0.0009,-0.0009,-0.0009,0.0006,0.002,-0.0008,0.0014,-0.0004,-0.0004,-0.0012,-0.0012,-0.0071,-0.0011,-0.0011,-0.0011,-0.0011,0,-0.007,-0.0082,-0.0057,-0.0064,-0.0078,-0.0057,-0.0071,-0.0063,-0.0056,-0.0061,-0.004,-0.0046,-0.0025,-0.0029,-0.0017,-0.0029,-0.0029,-0.0024,-0.0021,-0.0026,-0.0027,-0.0028,-0.0026,-0.0012,-0.0012,-0.0011,-0.0011,0,-0.0124,-0.0107,-0.0118,-0.0103,-0.0099,-0.011,-0.0097,-0.0103,-0.0092,-0.0099,-0.01,-0.0083,-0.0086,-0.007,-0.0071,-0.0063,-0.0081,-0.0073,-0.0084,-0.0082,-0.0101,-0.01,-0.0164,-0.0171,-0.0105,-0.0106,-0.0106,0,-0.0154,-0.0163,-0.0149,-0.015,-0.0145,-0.0149,-0.0148,-0.0128,-0.0129,-0.0122,-0.0129,-0.013,-0.013,-0.0136,-0.0125,-0.0125,-0.0118,-0.014,-0.0118,-0.0123,-0.0119,-0.0119,-0.012,-0.0145,-0.0146,-0.0146,-0.0147,0,-0.0211,-0.0202,-0.0202,-0.02,-0.02,-0.0197,-0.0193,-0.0196,-0.0174,-0.0176,-0.0179,-0.0179,-0.0178,-0.018,-0.0178,-0.0172,-0.0157,-0.0154,-0.0158,-0.0165,-0.0171,-0.0169,-0.0098,-0.0153,-0.0152,-0.0152,-0.0152,-0.0151,-0.0255,-0.0262,-0.0252,-0.0253,-0.0248,-0.0244,-0.0249,-0.0238,-0.024,-0.0238,-0.0225,-0.023,-0.0223,-0.0218,-0.0214,-0.0218,-0.0207,-0.0213,-0.0215,-0.0217,-0.0221,-0.0169,-0.0217,-0.0217,-0.0217,-0.0217,-0.0216,0,-0.0311,-0.0303,-0.0304,-0.0299,-0.03,-0.0283,-0.0277,-0.0279,-0.0284,-0.0277,-0.0277,-0.028,-0.0281,-0.0269,-0.0269,-0.0274,-0.0267,-0.0275,-0.0275,-0.0274,-0.023,-0.0227,-0.0281,-0.0281,-0.0281,-0.0281,-0.0281,-0.0281,-0.034,-0.0351,-0.0341,-0.0349,-0.0341,-0.0345,-0.0343,-0.034,-0.0335,-0.0339,-0.034,-0.0331,-0.0323,-0.0321,-0.0322,-0.0318,-0.032,-0.0331,-0.0325,-0.0284,-0.0278,-0.0272,-0.0268,-0.0331,-0.0331,-0.0369,-0.0369,-0.0369]},{"header":{"parameterUnit":"m.s-1","parameterCategory":1,"la1":30.2991,"la2":30.254,"lo1":-89.0895,"lo2":-89.0444,"dy":0.0017,"dx":0.0017,"nx":28,"ny":28,"refTime":"2023-10-31T03:00:00:Z","depth":0,"parameterNumber":3,"parameterNumberName":"V-component_of_WINDS"},"data":[0,0,0,0,0,0,0,0,0,0,0,0,0,0,0,0,0,0,0,0,0,0,0,0,0,0,0,0,0,0,0,0,0,0,0,0,0,0,0,0,0,0,0,0,0,0,0,0,0,0,0,0,0,0,0,0,0,0,-8.8861,-8.8862,0,-8.8958,-8.896,-8.8961,-8.8854,-8.885,-8.8846,-8.8842,-8.8936,-8.8942,-8.8948,0,0,0,0,0,0,0,0,0,0,0,0,0,-8.8576,-8.8581,-8.8861,-8.8862,-8.8863,-8.8958,-8.896,-8.8961,-8.8855,-8.885,-8.8845,-8.8841,-8.8934,-8.8941,-8.8949,0,0,0,0,0,0,0,0,0,0,0,0,0,-8.8689,-8.8583,-8.886,-8.8822,-8.8819,-8.8958,-8.896,-8.8961,-8.8856,-8.885,-8.8844,-8.8838,-8.8931,-8.894,-8.895,-8.9129,0,0,-8.8978,-8.8982,0,0,0,0,0,0,0,0,-8.8683,-8.8699,-8.8826,-8.8825,-8.8822,-8.8888,-8.8893,-8.9017,-8.8858,-8.8842,-8.8842,-8.8835,-8.8924,-8.8934,-8.8965,-8.9133,-8.9137,-8.8979,-8.8985,-8.8989,-8.8991,0,0,0,0,0,0,0,-8.8675,-8.8695,-8.8899,-8.8828,-8.8826,-8.8798,-8.8807,-8.8916,-8.8916,-8.8843,-8.8835,-8.8849,-8.8922,-8.8957,-8.8967,-8.9138,-8.8979,-8.8987,-8.8993,-8.8997,-8.9457,-8.9464,0,0,0,0,0,0,-8.8672,-8.8689,-8.8896,-8.8902,-8.8736,-8.8808,-8.8818,-8.8873,-8.8914,-8.8915,-8.8854,-8.8844,-8.8944,-8.8956,-8.897,-8.9182,-8.8989,-8.8997,-8.9003,-8.9451,-8.9459,-8.9466,0,0,0,0,0,0,-8.8667,-8.8692,-8.8892,-8.8794,-8.8817,-8.8819,-8.8882,-8.8878,-8.8913,-8.8923,-8.8921,-8.889,-8.8939,-8.8956,-8.909,-8.9183,-8.9002,-8.901,-8.9443,-8.9453,-8.9462,-8.9608,0,0,0,0,0,0,-8.8659,-8.869,-8.876,-8.8796,-8.8823,-8.9014,-8.8887,-8.8884,-8.893,-8.8917,-8.8956,-8.8957,-8.8936,-8.9077,-8.91,-8.9193,-8.9018,-8.9435,-8.9448,-8.9459,-8.9595,-8.9622,-8.9645,0,0,0,0,0,-8.8649,-8.8796,-8.8764,-8.879,-8.891,-8.9019,-8.9034,-8.9009,-8.8938,-8.9007,-8.9013,-8.8955,-8.917,-8.9092,-8.9116,-8.9214,-8.9429,-8.9444,-8.9458,-8.9584,-8.9616,-8.9644,0,0,0,0,0,0,-8.8768,-8.88,-8.8765,-8.8928,-8.8972,-8.9001,-8.9087,-8.9045,-8.9108,-8.9093,-8.9057,-8.9067,-8.921,-8.9225,-8.9137,-8.9389,-8.9287,-8.9308,-8.9374,-8.9405,-8.943,-8.9423,-8.9025,0,0,0,0,0,-8.8814,-8.8902,-8.8924,-8.9065,-8.9089,-8.9085,-8.9132,-8.9109,-8.9152,-8.9169,-8.9185,-8.9228,-8.9304,-8.9356,-8.9427,-8.9597,-8.9603,-8.9676,-8.9701,-8.9721,-8.9739,-8.983,-8.9862,-8.9515,-8.9515,-8.9515,0,0,-8.8907,-8.8936,-8.8993,-8.909,-8.9121,-8.9212,-8.9101,-8.9201,-8.9267,-8.9184,-8.9312,-8.9326,-8.937,-8.9523,-8.9591,-8.954,-8.9837,-8.974,-8.9757,-8.9763,-8.9848,-8.9881,-8.9911,-8.9525,-8.9523,-8.9522,0,0,-8.9125,-8.9156,-8.9278,-8.9312,-8.9362,-8.9359,-8.9388,-8.9424,-8.9431,-8.9559,-8.9499,-8.9575,-8.9709,-8.9743,-8.9778,-9.001,-8.9959,-9.0034,-9.0164,-9.0253,-9.028,-9.0304,-9.0386,-9.0416,-9.0052,-9.0053,-9.0053,0,-8.9235,-8.9371,-8.9345,-8.945,-8.9494,-8.9425,-8.9547,-8.9581,-8.9651,-8.9681,-8.9624,-8.9791,-8.9816,-8.9975,-9.0032,-9.0063,-9.0094,-9.0029,-9.0279,-9.0302,-9.0324,-9.0402,-9.0434,-9.0061,-9.006,-9.0059,-9.0059,0,-8.9504,-8.9599,-8.9691,-8.9763,-8.9817,-8.993,-8.9919,-8.9976,-8.9949,-8.9951,-9.0082,-9.011,-9.0186,-9.0222,-9.0196,-9.0379,-9.0346,-9.0285,-9.0181,-9.0367,-9.044,-9.0469,-9.0074,-9.0071,-9.0068,-9.0066,0,0,-8.9798,-8.9856,-8.989,-8.9922,-8.9973,-9.0044,-9.0154,-9.023,-9.028,-9.033,-9.042,-9.0535,-9.0479,-9.0519,-9.0495,-9.0574,-9.0755,-9.0502,-9.0503,-9.0548,-9.0958,-9.1003,-9.1039,-9.0722,-9.0728,-9.0732,-9.0954,0,-9.0017,-9.0209,-9.0189,-9.0371,-9.0458,-9.0394,-9.0489,-9.0529,-9.0534,-9.0607,-9.0611,-9.0693,-9.0613,-9.0637,-9.0711,-9.0718,-9.0837,-9.0701,-9.0803,-9.0807,-9.0794,-9.1077,-9.1125,-9.1333,-9.0982,-9.0987,-9.099,0,-9.0297,-9.0361,-9.0553,-9.0591,-9.0627,-9.0713,-9.0781,-9.0852,-9.0896,-9.0894,-9.094,-9.0903,-9.101,-9.0906,-9.1053,-9.0961,-9.1001,-9.1011,-9.1018,-9.1026,-9.091,-9.1092,-9.1399,-9.143,-9.1035,-9.1031,-9.1028,0,-9.0493,-9.0626,-9.0758,-9.0787,-9.0835,-9.0897,-9.0919,-9.0957,-9.1005,-9.1064,-9.1094,-9.1165,-9.1203,-9.1257,-9.124,-9.1166,-9.139,-9.1284,-9.139,-9.1391,-9.144,-9.1437,-9.1757,-9.1467,-9.1467,-9.1466,-9.1465,0,-9.0739,-9.0858,-9.0846,-9.0928,-9.1059,-9.1034,-9.1164,-9.1178,-9.1213,-9.1294,-9.1242,-9.1319,-9.1292,-9.1367,-9.1353,-9.1477,-9.1494,-9.1494,-9.1489,-9.1499,-9.1499,-9.1524,-9.1509,-9.1474,-9.1472,-9.1471,-9.1469,0,-9.0978,-9.0976,-9.1115,-9.115,-9.1161,-9.1257,-9.1285,-9.1361,-9.1362,-9.1465,-9.1488,-9.1489,-9.1574,-9.1563,-9.1657,-9.1648,-9.1802,-9.1779,-9.1788,-9.1782,-9.1889,-9.1879,-9.2236,-9.2282,-9.1963,-9.1966,-9.1968,0,-9.1135,-9.1226,-9.1272,-9.1324,-9.1352,-9.1436,-9.1485,-9.1463,-9.1516,-9.1573,-9.1641,-9.1723,-9.1786,-9.1925,-9.1933,-9.2005,-9.1983,-9.2104,-9.1993,-9.2,-9.1984,-9.1979,-9.1988,-9.2125,-9.2129,-9.2132,-9.2134,0,-9.1414,-9.1409,-9.1483,-9.1558,-9.1618,-9.1675,-9.1726,-9.1771,-9.1753,-9.1815,-9.1903,-9.1953,-9.2051,-9.2131,-9.2199,-9.2219,-9.2174,-9.2169,-9.2197,-9.2208,-9.2209,-9.2209,-9.1847,-9.2161,-9.2158,-9.2156,-9.2155,-9.2153,-9.1617,-9.1695,-9.174,-9.1824,-9.1861,-9.191,-9.1983,-9.1995,-9.2069,-9.2148,-9.213,-9.223,-9.227,-9.2357,-9.2385,-9.246,-9.2416,-9.2457,-9.2467,-9.2477,-9.249,-9.2198,-9.2472,-9.2472,-9.2471,-9.247,-9.247,0,-9.1893,-9.1919,-9.1997,-9.2072,-9.2138,-9.2092,-9.2147,-9.2204,-9.2293,-9.2336,-9.2401,-9.2502,-9.258,-9.2595,-9.2669,-9.2727,-9.2708,-9.2747,-9.2742,-9.2748,-9.2526,-9.2494,-9.2762,-9.2762,-9.2761,-9.2761,-9.2761,-9.2761,-9.2044,-9.2175,-9.2174,-9.2321,-9.2345,-9.2445,-9.248,-9.2524,-9.2559,-9.2675,-9.2741,-9.2751,-9.2782,-9.2858,-9.2928,-9.293,-9.2959,-9.3007,-9.3001,-9.2793,-9.2763,-9.2736,-9.2705,-9.3013,-9.3014,-9.3216,-9.3218,-9.322]}]]